• Processing (Info)

  • MPEC 2020-F145 : 2020 FF5

    The following Minor Planet Electronic Circular may be linked-to from your own Web pages, but must not otherwise be redistributed electronically.

    A form allowing access to any MPEC is at the bottom of this page.


    Read MPEC 2020-F144 Read MPEC 2020-F146


    M.P.E.C. 2020-F145                               Issued 2020 March 26, 01:34 UT
    
         The Minor Planet Electronic Circulars contain information on unusual
             minor planets and routine data on comets.  They are published
        on behalf of Division F of the International Astronomical Union by the
              Minor Planet Center, Smithsonian Astrophysical Observatory,
                              Cambridge, MA 02138, U.S.A.
    
                 Prepared using the Tamkin Foundation Computer Network
    
                                  MPC@CFA.HARVARD.EDU
                URL https://www.minorplanetcenter.net/    ISSN 1523-6714
    
                                    2020 FF5                                 
    
    
    Observations:
         K20F05F* C2020 03 24.39330912 36 54.351+44 30 32.56         20.58wUEF145F52
         K20F05F  C2020 03 24.40565312 37 01.842+44 30 14.80         20.35wUEF145F52
         K20F05F  C2020 03 24.41802712 37 09.273+44 29 57.22         20.67wUEF145F52
         K20F05F  C2020 03 24.43040912 37 16.721+44 29 38.37         20.85wUEF145F52
         K20F05F  C2020 03 24.81772 12 41 43.50 +44 17 09.2          20.4 VVEF145033
         K20F05F  C2020 03 24.82003 12 41 45.05 +44 17 06.0          20.2 VVEF145033
         K20F05F  C2020 03 24.82234 12 41 46.56 +44 17 02.6          20.2 VVEF145033
         K20F05F KC2020 03 24.89361 12 42 34.59 +44 15 21.0          20.7 VqEF145I93
         K20F05F KC2020 03 24.90557 12 42 42.12 +44 15 02.5          20.4 VqEF145I93
         K20F05F pC2020 03 24.95018112 43 08.32 +44 13 55.8          20.7 GVEF145L01
         K20F05F KC2020 03 24.95717912 43 12.77 +44 13 43.9          20.6 GVEF145L01
         K20F05F  C2020 03 24.95863 12 43 13.34 +44 13 33.1          20.7 GVEF145246
         K20F05F  C2020 03 24.95959 12 43 14.07 +44 13 31.8          20.1 GVEF145246
         K20F05F  C2020 03 24.95984 12 43 14.29 +44 13 31.4                VEF145246
         K20F05F KC2020 03 24.95987912 43 14.45 +44 13 39.1          20.7 GVEF145L01
         K20F05F  C2020 03 24.96027 12 43 14.50 +44 13 30.9          20.3 GVEF145246
         K20F05F  C2020 03 25.06880 12 44 23.30 +44 09 59.8          20.2 VVEF145033
         K20F05F  C2020 03 25.07064 12 44 24.54 +44 09 56.2          20.0 VVEF145033
         K20F05F  C2020 03 25.07249 12 44 25.67 +44 09 52.4          20.6 VVEF145033
         K20F05F KC2020 03 25.19614512 45 57.91 +44 06 27.0          20.9 VuEF145H21
         K20F05F KC2020 03 25.19905112 45 59.73 +44 06 22.5          20.7 VuEF145H21
         K20F05F KC2020 03 25.20195412 46 01.53 +44 06 17.4          20.7 VuEF145H21
         K20F05F KC2020 03 25.23191 12 46 23.32 +44 05 24.5          20.7 VqEF145858
         K20F05F KC2020 03 25.24808 12 46 33.40 +44 04 58.6          21.0 VqEF145858
         K20F05F  C2020 03 25.78786 12 52 45.37 +43 45 24.8          21.1 VVEF145033
         K20F05F  C2020 03 25.78970 12 52 46.58 +43 45 21.4          21.2 VVEF145033
         K20F05F  C2020 03 25.79155 12 52 47.83 +43 45 18.3          20.9 VVEF145033
         K20F05F  C2020 03 25.79345 12 52 49.13 +43 45 14.6          20.7 VVEF145033
         K20F05F KC2020 03 26.01436112 55 13.91 +43 37 50.4          21.1 GVEF145J95
         K20F05F KC2020 03 26.02538212 55 20.92 +43 37 25.3          20.7 GVEF145J95
         K20F05F KC2020 03 26.03822312 55 29.12 +43 36 56.9          21.4 GVEF145J95
    
    Observer details:
    033 Karl Schwarzschild Observatory, Tautenburg.  Observers F. Ludwig, S. 
       Melnikov, B. Stecklum.  Measurer B. Stecklum.  1.34-m f/3 Schmidt + CCD.
    246 Klet Observatory-KLENOT.  Observers M. Tichy, J. Ticha.  Measurer M. Tichy. 
        1.06-m f/2.7 reflector + 2048x2048 CCD.
    858 Tebbutt Observatory, Edgewood.  Observer F. B. Zoltowski.  0.51-m 
       Schmidt-Cassegrain + CCD.
    F52 Pan-STARRS 2, Haleakala.  Observers J. Bulger, T. Dukes, T. Lowe, A. 
       Schultz, M. Willman.  Measurers K. Chambers, S. Chastel, T. de Boer, L. 
       Denneau, J. Fairlamb, H. Flewelling, M. Huber, C.-C. Lin, E. Magnier, Y. 
       Ramanjooloo, R. Wainscoat, R. Weryk.  1.8-m Ritchey-Chretien + CCD.
    H21 Astronomical Research Observatory, Westfield.  Observer R. Holmes.  
        Measurers S. Foglia, L. Buzzi, T. Linder, R. Holmes.  0.76-m f/3.0 
       astrograph + CCD.
    I93 St Pardon de Conques.  Observer F. Losse.  0.40-m f/3.7 reflector + CCD.
    J95 Great Shefford.  Observer P. Birtwhistle.  0.41-m f/6.3 Schmidt-Cassegrain 
       + CCD.
    L01 Visnjan Observatory, Tican.  Observer K. Korlevic.  1.0-m f/2.9 reflector + 
       CCD.
    
    Orbital elements:
    2020 FF5                                                 Earth MOID = 0.0601 AU
    Epoch 2020 May 31.0 TT = JDT 2459000.5                  Alexandersen
    M  27.54251              (2000.0)            P               Q
    n   0.44790684     Peri.  106.28537     -0.98453745     +0.16951425
    a   1.6917814      Node    83.49023     -0.17285179     -0.89917282
    e   0.3839498      Incl.    2.54798     -0.02843018     -0.40342678
    P   2.20           H   24.8           G   0.15           U   7
    Residuals in seconds of arc
    200324 F52  0.0   0.2+    200324 246  1.2-  0.2-    200325 858  0.3-  0.4-
    200324 F52  0.3+  0.2-    200324 246  0.2+  0.1+    200325 858  0.6-  1.1+
    200324 F52  0.1-  0.2+    200324 246  0.9+  0.2+    200325 033  0.1-  0.3-
    200324 F52  0.2-  0.1-    200324 L01  0.6+  0.2-    200325 033  0.4-  0.4-
    200324 033  0.6-  0.3-    200324 246  0.2+  0.4+    200325 033  0.3-  0.2-
    200324 033  0.2-  0.2-    200325 033  0.3-  0.4-    200325 033  0.0   0.5-
    200324 033  0.2-  0.3-    200325 033  0.5+  0.2-    200326 J95  0.1+  0.4+
    200324 I93  0.7+  0.7+    200325 033  0.1-  0.3-    200326 J95  0.1-  0.3-
    200324 I93  0.5-  0.2+    200325 H21  0.3+  0.1-    200326 J95  0.1+  0.1+
    200324 L01  0.2-  0.4-    200325 H21  0.3+  0.4+
    200324 L01  0.6+  0.1-    200325 H21  0.1+  0.3+
    
    Ephemeris:
    2020 FF5                 a,e,i = 1.69, 0.38, 3                   q = 1.0422
    Date    TT    R. A. (2000) Decl.     Delta      r    Elong.  Phase     V
    2020 02 25    09 44 00.6 +36 25 04   0.1253  1.1010   151.1    25.7    21.7
    ...
    2020 03 11    10 39 05.4 +43 26 02   0.08835 1.0616   139.0    37.9    21.2
    ...
    2020 03 19    11 40 32.6 +45 27 57   0.07366 1.0490   135.0    42.2    20.9
    ...
    2020 03 25    12 43 39.7 +44 12 31   0.06570 1.0437   133.6    43.8    20.7
    2020 03 26    12 55 02.6 +43 38 43   0.06469 1.0432   133.5    43.9    20.6
    2020 03 27    13 06 30.1 +42 58 04   0.06378 1.0428   133.4    44.0    20.6
    ...
    2020 04 02    14 12 52.1 +36 33 56   0.06065 1.0425   133.8    43.8    20.5
    ...
    2020 04 10    15 21 48.2 +23 55 59   0.06317 1.0479   135.6    42.0    20.5
    ...
    2020 04 25    16 26 12.8 +02 38 18   0.08517 1.0752   142.9    34.4    21.0
    
    A. U. Tomatic                (C) Copyright 2020 MPC           M.P.E.C. 2020-F145
    


    Read MPEC 2020-F144 Read MPEC 2020-F146


    MPEC number:

    Enter an MPEC number in one of the following forms:

    • 1997-B01 (the full form)
    • J97B01 (the packed version of the full form)
    • B01 (the abbreviated form)